Home > Weather > Markham > Past weeks

Flag for Canada Weather for the Past 2 Weeks in Markham, Ontario, Canada

Now
50 °F

Mostly cloudy.


Feels Like: 48 °F
Forecast: 43 / 48 °F
Wind: 6 mph from East

Location: Toronto Buttonville

Current Time: Apr 30, 2016 at 10:53:55 PM

Latest Report: Apr 30, 2016 at 10:00 PM


Visibility: 15 mi

Pressure: 30.13 "Hg

Humidity: 30%

Dew Point: 19 °F

Location of MarkhamLocation

Historic Weather in Markham — Graph

°F

Markham Temperature Yesterday

Maximum temperature yesterday: 54 °F (at 4:00 PM)
Minimum temperature yesterday: 41 °F (at 1:00 AM)
Average temperature yesterday: 46 °F

High & Low Weather Summary for the Past Weeks

 TemperatureHumidityPressure
High75 °F (Apr 18, 2:00 PM)94% (Apr 21, 11:00 PM)30.50 "Hg (Apr 21, 11:00 PM)
Low32 °F (Apr 27, 4:00 AM)13% (Apr 20, 5:00 PM)29.74 "Hg (Apr 26, 5:00 AM)
Average47 °F52%30.14 "Hg
* Reported Apr 15 9:00 PM — Apr 30 9:00 PM, Markham, Weather by CustomWeather, © 2016

Note: Actual official high and low records may vary slightly from our data, if they occured in-between our weather recording intervals... More about our weather records

Advertising

Markham Weather History for the Previous 24 Hours

Scroll right to see more
 ConditionsComfort  
Time TempWeatherWind HumidityBarometerVisibility
9:00 PM
Sat, Apr 30
50 °FMostly cloudy.7 mph32%30.13 "Hg15 mi
8:00 PM52 °FMostly cloudy.6 mph30%30.15 "Hg15 mi
7:00 PM54 °FPartly sunny.8 mph33%30.15 "Hg15 mi
6:00 PM55 °FOvercast.9 mph31%30.16 "Hg15 mi
5:00 PM57 °FPartly sunny.9 mph29%30.15 "Hg15 mi
4:00 PM55 °FPartly sunny.12 mph24%30.17 "Hg15 mi
3:00 PM57 °FPartly sunny.14 mph25%30.19 "Hg15 mi
2:00 PM55 °FPartly sunny.9 mph26%30.21 "Hg15 mi
1:00 PM54 °FPartly sunny.12 mph28%30.21 "Hg15 mi
12:00 PM54 °FScattered clouds.15 mph28%30.22 "Hg15 mi
11:00 AM54 °FScattered clouds.14 mph28%30.23 "Hg15 mi
10:00 AM54 °FPassing clouds.9 mph30%30.23 "Hg15 mi
9:00 AM52 °FPassing clouds.8 mph41%30.22 "Hg15 mi
8:00 AM45 °FPassing clouds.5 mph53%30.22 "Hg15 mi
7:00 AM37 °FPassing clouds.2 mph65%30.22 "Hg15 mi
6:00 AM36 °FPassing clouds.2 mph70%30.22 "Hg15 mi
5:00 AM36 °FClear.No wind70%30.19 "Hg15 mi
4:00 AM36 °FClear.3 mph70%30.19 "Hg15 mi
3:00 AM37 °FClear.5 mph65%30.18 "Hg15 mi
2:00 AM39 °FClear.5 mph61%30.19 "Hg15 mi
1:00 AM41 °FClear.2 mph61%30.18 "Hg15 mi
12:00 AM43 °FClear.2 mph57%30.19 "Hg15 mi
11:00 PM
Fri, Apr 29
43 °FClear.3 mph57%30.16 "Hg15 mi
10:00 PM45 °FPassing clouds.3 mph53%30.16 "Hg15 mi
Weather by CustomWeather, © 2016

See weather overviewHow to use our weather pages